323P/SOHO (2025)

Japanese version
Home page
Updated on November 30, 2024

---------------------------------------------------------------------

* Profile

* Orbital Elements

Epoch 2023 Sept. 13.0 TT = JDT 2460200.5                                        
T 2025 Mar. 14.31166 TT                                 Rudenko                 
q   0.0395988            (2000.0)            P               Q                  
n   0.23737658     Peri.  353.14147     +0.73658127     +0.67416253             
a   2.5833156      Node   324.27390     -0.61603366     +0.63555960             
e   0.9846713      Incl.    5.33986     -0.27919628     +0.37625639             
P   4.15                                                                        
>From 202 observations 1999 Dec. 12-2021 Mar. 26, mean residual 0".1.            

* Finding Charts

* Magnitudes Graph

        H = 21.0  G = 0.15                [   ,-30]  (             - 2025 Feb. 12)
        m1 = 24.0 + 5 log d + 13.0 log r  [-30, 21]  (2025 Feb. 12 - 2025 Apr.  4)
        H = 21.0  G = 0.15                [ 21,   ]  (2025 Apr.  4 -             )

---------------------------------------------------------------------

The orbital elements are published on M.P.E.C. 2023-X256.
The charts are made with StellaNavigator Ver.11 (AstroArts).
The magnitudes graphs are made with Comet for Windows.

---------------------------------------------------------------------

Copyright(C) Seiichi Yoshida (comet@aerith.net). All rights reserved.